Weather History for KI69 - December, 2013

Change the Weather History Date:

Tuesday, December 31, 2013

  Actual Average (KCVG) Record (KCVG)
Temperature  
Mean Temperature 30 °F 31 °F  
Max Temperature 33 °F 39 °F 72 °F (1875)
Min Temperature 26 °F 24 °F -2 °F (1976)
Degree Days  
Heating Degree Days 36 34  
Month to date heating degree days 959  
Since 1 July heating degree days 1919  
Cooling Degree Days 0 0  
Month to date cooling degree days 0  
Year to date cooling degree days 1121  
Moisture  
Dew Point 19 °F    
Average Humidity 63    
Maximum Humidity 74    
Minimum Humidity 52    
Precipitation  
Precipitation 0.00 in 0.10 in 2.50 in (1871)
Month to date precipitation 3.37  
Year to date precipitation 42.52  
Snow  
Snow 0.00 in 0.20 in 5.60 in (1960)
Month to date snowfall 4.8  
Since 1 July snowfall 5.6  
Snow Depth -    
Sea Level Pressure  
Sea Level Pressure 30.27 in    
Wind  
Wind Speed 8 mph (WSW)    
Max Wind Speed 18 mph    
Max Gust Speed 24 mph    
Visibility 10 miles    
Events Snow    
T = Trace of Precipitation, MM = Missing Value Source: NWS Daily Summary

Daily Weather History Graph

Daily Weather History Graph

Search for Another Location

Airport or City:

Trip Planner

Search our weather history database for the weather conditions in past years. The results will help you decide how hot, cold, wet, or windy it might be!

Date:

Astronomy

Dec. 31, 2013 Rise Set
Actual Time 7:55 AM EST 5:24 PM EST
Civil Twilight 7:25 AM EST 5:54 PM EST
Nautical Twilight 6:52 AM EST 6:27 PM EST
Astronomical Twilight 6:19 AM EST 7:00 PM EST
Moon 6:48 AM EST (12/31) 4:59 PM EST (12/31)
Length of Visible Light 10h 28m
Length of Day
9h 28m
Waning Crescent, 1% of the Moon is Illuminated
Dec 31
Waning Crescent
Jan 1
New
Jan 7
First Quarter
Jan 15
Full
Jan 24
Last Quarter

Hourly Weather History & Observations

Time (EST) Temp. Windchill Dew Point Humidity Pressure Visibility Wind Dir Wind Speed Gust Speed Precip Events Conditions
12:16 AM 26.6 °F 22.6 °F 19.4 °F 74% 30.18 in 10.0 mi SSW 3.5 mph - N/A   Overcast
12:36 AM 26.6 °F 20.0 °F 19.4 °F 74% 30.18 in 10.0 mi SSW 5.8 mph - N/A   Overcast
12:55 AM 26.6 °F 20.0 °F 19.4 °F 74% 30.17 in 10.0 mi SW 5.8 mph - N/A   Overcast
1:16 AM 26.6 °F 18.2 °F 19.4 °F 74% 30.17 in 10.0 mi SW 8.1 mph - N/A   Overcast
1:36 AM 26.6 °F 20.0 °F 19.4 °F 74% 30.18 in 10.0 mi SW 5.8 mph - N/A   Overcast
1:55 AM 26.6 °F 19.1 °F 19.4 °F 74% 30.18 in 10.0 mi WSW 6.9 mph - N/A   Overcast
2:16 AM 26.6 °F 19.1 °F 19.4 °F 74% 30.18 in 10.0 mi SW 6.9 mph - N/A   Overcast
2:36 AM 26.6 °F 18.2 °F 19.4 °F 74% 30.18 in 10.0 mi WSW 8.1 mph - N/A   Overcast
2:56 AM 26.6 °F 18.2 °F 19.4 °F 74% 30.18 in 10.0 mi WSW 8.1 mph - N/A   Overcast
3:16 AM 26.6 °F 19.1 °F 19.4 °F 74% 30.19 in 10.0 mi WSW 6.9 mph - N/A   Overcast
3:35 AM 26.6 °F 19.1 °F 19.4 °F 74% 30.18 in 10.0 mi WSW 6.9 mph - N/A   Overcast
3:56 AM 26.6 °F 18.2 °F 17.6 °F 69% 30.17 in 10.0 mi SW 8.1 mph - N/A   Overcast
4:16 AM 26.6 °F 18.2 °F 17.6 °F 69% 30.17 in 10.0 mi WSW 8.1 mph - N/A   Overcast
4:36 AM 26.6 °F 16.2 °F 19.4 °F 74% 30.17 in 10.0 mi WSW 11.5 mph 16.1 mph N/A   Overcast
4:56 AM 26.6 °F 17.5 °F 17.6 °F 69% 30.17 in 10.0 mi WSW 9.2 mph - N/A   Overcast
5:16 AM 28.4 °F 20.4 °F 17.6 °F 64% 30.17 in 10.0 mi WSW 8.1 mph - N/A   Overcast
5:36 AM 28.4 °F 19.7 °F 17.6 °F 64% 30.18 in 10.0 mi WSW 9.2 mph - N/A   Overcast
5:56 AM 28.4 °F 20.4 °F 17.6 °F 64% 30.18 in 10.0 mi West 8.1 mph - N/A   Overcast
6:16 AM 28.4 °F 19.1 °F 17.6 °F 64% 30.19 in 10.0 mi West 10.4 mph - N/A   Overcast
6:36 AM 28.4 °F 19.1 °F 17.6 °F 64% 30.18 in 10.0 mi West 10.4 mph - N/A   Overcast
6:56 AM 28.4 °F 19.7 °F 17.6 °F 64% 30.20 in 10.0 mi West 9.2 mph - N/A   Overcast
7:16 AM 28.4 °F 18.0 °F 17.6 °F 64% 30.21 in 10.0 mi West 12.7 mph 16.1 mph N/A   Overcast
7:36 AM 28.4 °F 18.5 °F 17.6 °F 64% 30.23 in 10.0 mi West 11.5 mph - N/A   Overcast
7:56 AM 28.4 °F 18.5 °F 17.6 °F 64% 30.23 in 10.0 mi West 11.5 mph 19.6 mph N/A   Overcast
8:16 AM 28.4 °F 18.5 °F 17.6 °F 64% 30.24 in 10.0 mi West 11.5 mph 17.3 mph N/A   Overcast
8:36 AM 28.4 °F 18.5 °F 17.6 °F 64% 30.25 in 10.0 mi West 11.5 mph 19.6 mph N/A   Overcast
8:56 AM 28.4 °F 17.0 °F 17.6 °F 64% 30.27 in 10.0 mi West 15.0 mph 18.4 mph N/A   Overcast
9:16 AM 28.4 °F 17.5 °F 17.6 °F 64% 30.29 in 10.0 mi West 13.8 mph 19.6 mph N/A   Overcast
9:36 AM 28.4 °F 19.1 °F 17.6 °F 64% 30.31 in 10.0 mi West 10.4 mph 18.4 mph N/A Snow Light Snow
9:56 AM 28.4 °F 18.0 °F 17.6 °F 64% 30.33 in 10.0 mi West 12.7 mph 24.2 mph N/A Snow Light Snow
10:16 AM 28.4 °F 17.5 °F 17.6 °F 64% 30.35 in 10.0 mi West 13.8 mph 19.6 mph N/A Snow Light Snow
10:36 AM 28.4 °F 16.6 °F 19.4 °F 69% 30.35 in 10.0 mi West 16.1 mph 24.2 mph N/A Snow Light Snow
10:56 AM 28.4 °F 16.2 °F 17.6 °F 64% 30.37 in 10.0 mi West 17.3 mph 24.2 mph N/A   Overcast
11:16 AM 30.2 °F 18.1 °F 17.6 °F 60% 30.37 in 10.0 mi West 18.4 mph 24.2 mph N/A   Overcast
11:36 AM 30.2 °F 19.8 °F 19.4 °F 64% 30.36 in 10.0 mi WNW 13.8 mph 20.7 mph N/A   Mostly Cloudy
11:56 AM 30.2 °F 21.3 °F 17.6 °F 60% 30.35 in 10.0 mi West 10.4 mph - N/A   Scattered Clouds
12:16 PM 32.0 °F 23.6 °F 17.6 °F 55% 30.34 in 10.0 mi WNW 10.4 mph 16.1 mph N/A   Clear
12:36 PM 32.0 °F 24.2 °F 17.6 °F 55% 30.34 in 10.0 mi WSW 9.2 mph - N/A   Clear
12:56 PM 32.0 °F 24.8 °F 19.4 °F 60% 30.35 in 10.0 mi West 8.1 mph - N/A   Clear
1:16 PM 32.0 °F 23.0 °F 19.4 °F 60% 30.35 in 10.0 mi West 11.5 mph - N/A   Clear
1:36 PM 32.0 °F 23.6 °F 19.4 °F 60% 30.33 in 10.0 mi WSW 10.4 mph - N/A   Clear
1:56 PM 33.8 °F 25.8 °F 17.6 °F 52% 30.33 in 10.0 mi WSW 10.4 mph - N/A   Clear
2:16 PM 33.8 °F 26.4 °F 17.6 °F 52% 30.34 in 10.0 mi West 9.2 mph - N/A   Clear
2:36 PM 33.8 °F 26.4 °F 17.6 °F 52% 30.33 in 10.0 mi WSW 9.2 mph - N/A   Clear
2:56 PM 33.8 °F 27.7 °F 17.6 °F 52% 30.32 in 10.0 mi WSW 6.9 mph 17.3 mph N/A   Clear
3:15 PM 33.8 °F 27.7 °F 17.6 °F 52% 30.32 in 10.0 mi West 6.9 mph 18.4 mph N/A   Clear
3:36 PM 33.8 °F 25.8 °F 17.6 °F 52% 30.31 in 10.0 mi WSW 10.4 mph 16.1 mph N/A   Clear
3:56 PM 33.8 °F 27.7 °F 17.6 °F 52% 30.31 in 10.0 mi SW 6.9 mph - N/A   Clear
4:15 PM 33.8 °F 29.6 °F 17.6 °F 52% 30.30 in 10.0 mi SW 4.6 mph - N/A   Clear
4:36 PM 33.8 °F 29.6 °F 17.6 °F 52% 30.31 in 10.0 mi WSW 4.6 mph - N/A   Clear
4:56 PM 33.8 °F 29.6 °F 17.6 °F 52% 30.31 in 10.0 mi SW 4.6 mph - N/A   Clear
5:15 PM 33.8 °F 30.8 °F 17.6 °F 52% 30.31 in 10.0 mi SW 3.5 mph - N/A   Clear
5:36 PM 33.8 °F 30.8 °F 19.4 °F 56% 30.31 in 10.0 mi SW 3.5 mph - N/A   Clear
5:56 PM 33.8 °F - 19.4 °F 56% 30.31 in 10.0 mi Calm Calm - N/A   Clear
6:15 PM 32.0 °F - 19.4 °F 60% 30.31 in 10.0 mi Calm Calm - N/A   Clear
6:36 PM 32.0 °F 28.7 °F 19.4 °F 60% 30.31 in 10.0 mi SSW 3.5 mph - N/A   Clear
6:56 PM 32.0 °F - 19.4 °F 60% 30.31 in 10.0 mi Calm Calm - N/A   Clear
7:15 PM 32.0 °F 28.7 °F 19.4 °F 60% 30.30 in 10.0 mi South 3.5 mph - N/A   Clear
7:36 PM 32.0 °F - 19.4 °F 60% 30.30 in 10.0 mi Calm Calm - N/A   Clear
7:56 PM 32.0 °F 27.5 °F 19.4 °F 60% 30.30 in 10.0 mi SSW 4.6 mph - N/A   Clear
8:15 PM 32.0 °F 28.7 °F 19.4 °F 60% 30.30 in 10.0 mi South 3.5 mph - N/A   Clear
8:36 PM 32.0 °F 28.7 °F 19.4 °F 60% 30.28 in 10.0 mi South 3.5 mph - N/A   Clear
8:56 PM 32.0 °F 27.5 °F 21.2 °F 64% 30.29 in 10.0 mi SSW 4.6 mph - N/A   Clear
9:15 PM 32.0 °F 27.5 °F 21.2 °F 64% 30.29 in 10.0 mi SSW 4.6 mph - N/A   Clear
9:36 PM 32.0 °F 28.7 °F 21.2 °F 64% 30.29 in 10.0 mi SSW 3.5 mph - N/A   Clear
9:56 PM 32.0 °F 27.5 °F 21.2 °F 64% 30.28 in 10.0 mi SSW 4.6 mph - N/A   Clear
10:15 PM 32.0 °F 26.4 °F 21.2 °F 64% 30.28 in 10.0 mi SSW 5.8 mph - N/A   Clear
10:36 PM 32.0 °F 27.5 °F 21.2 °F 64% 30.28 in 10.0 mi SSW 4.6 mph - N/A   Clear
10:55 PM 32.0 °F 27.5 °F 21.2 °F 64% 30.27 in 10.0 mi South 4.6 mph - N/A   Clear
11:16 PM 32.0 °F 26.4 °F 21.2 °F 64% 30.26 in 10.0 mi SSW 5.8 mph - N/A   Clear
11:36 PM 32.0 °F 25.6 °F 21.2 °F 64% 30.27 in 10.0 mi SSW 6.9 mph - N/A   Clear
11:56 PM 32.0 °F 28.7 °F 21.2 °F 64% 30.27 in 10.0 mi SW 3.5 mph - N/A   Clear